This is the latest recevied weather packets stored in our database for station/object KB1RMA-13. If no packets are shown the sender has not sent any weather packets the latest 10 day(s).
| Time | Temp. | Humidity | Pressure | Rain* | Wind** | Luminosity | Snow |
|---|---|---|---|---|---|---|---|
| 1777768493 | 9.44° C | 95% | 1010.8 hPa | 0 mm | - | 0 W/m² | - |
| 1777768190 | 9.44° C | 95% | 1010.9 hPa | 0 mm | - | 0 W/m² | - |
| 1777767887 | 9.44° C | 95% | 1010.9 hPa | 0 mm | - | 0 W/m² | - |
| 1777767583 | 9.44° C | 95% | 1010.8 hPa | 0 mm | - | 0 W/m² | - |
| 1777767280 | 9.44° C | 94% | 1010.7 hPa | 0 mm | - | 0 W/m² | - |
| 1777766978 | 8.89° C | 94% | 1010.6 hPa | 0 mm | - | 0 W/m² | - |
| 1777766674 | 9.44° C | 94% | 1010.5 hPa | 0 mm | - | 0 W/m² | - |
| 1777766372 | 9.44° C | 93% | 1010.3 hPa | 0 mm | - | 0 W/m² | - |
| 1777766068 | 9.44° C | 93% | 1010.4 hPa | 0 mm | - | 1 W/m² | - |
| 1777765766 | 9.44° C | 92% | 1010.5 hPa | 0 mm | - | 1 W/m² | - |
| 1777765462 | 9.44° C | 92% | 1010.5 hPa | 0 mm | - | 1 W/m² | - |
| 1777765160 | 9.44° C | 91% | 1010.3 hPa | 0 mm | - | 2 W/m² | - |
| 1777764855 | 9.44° C | 91% | 1010.4 hPa | 0 mm | - | 4 W/m² | - |
| 1777764552 | 9.44° C | 90% | 1010.5 hPa | 0 mm | - | 4 W/m² | - |
| 1777764248 | 10° C | 90% | 1010.6 hPa | 0 mm | - | 5 W/m² | - |
| 1777763945 | 10° C | 89% | 1010.3 hPa | 0 mm | - | 5 W/m² | - |
| 1777763643 | 10° C | 88% | 1010.5 hPa | 0 mm | - | 9 W/m² | - |
| 1777763341 | 10° C | 86% | 1010.4 hPa | 0 mm | - | 6 W/m² | - |
| 1777763039 | 10° C | 86% | 1010.4 hPa | 0 mm | - | 4 W/m² | - |
| 1777762736 | 10° C | 85% | 1010.2 hPa | 0 mm | - | 6 W/m² | - |
| 1777762432 | 10.56° C | 85% | 1010.1 hPa | 0 mm | - | 9 W/m² | - |
| 1777762129 | 10.56° C | 85% | 1010.2 hPa | 0 mm | - | 10 W/m² | - |
| 1777761825 | 10.56° C | 84% | 1010.2 hPa | 0 mm | - | 17 W/m² | - |
| 1777761523 | 10.56° C | 83% | 1010 hPa | 0 mm | - | 33 W/m² | - |
| 1777761221 | 11.11° C | 82% | 1010.1 hPa | 0 mm | - | 34 W/m² | - |
* Rain latest hour (hover to see other rain measurements)
** Current wind speed in m/s (hover to see current wind gust speed)